GFSFLT2_925_temp_084.txt.gz
Temp
16 17 16 17 17 18 17 17 18 17 17 17 17 17 16 15 15 16 17 17 17 16 16 16 16 16 16 15 14 14 13 12
18 17 17 16 17 16 18 18 18 17 17 17 18 16 16 15 16 16 16 17 17 16 16 16 16 15 15 15 14 14 13 12
17 16 15 15 15 16 16 16 17 17 16 17 17 16 16 16 16 17 16 16 17 16 16 16 15 15 15 15 14 13 13 12
15 14 14 14 14 15 15 15 16 16 16 16 17 17 17 16 16 16 16 17 17 17 16 15 16 15 15 15 14 14 13 12
14 15 14 14 14 14 14 14 14 16 15 15 17 17 16 16 15 16 16 17 17 17 17 16 16 16 15 14 14 13 13 12
14 14 14 13 13 16 14 14 14 15 16 16 16 16 16 16 16 16 17 17 16 17 16 16 16 15 15 14 14 13 13 12
13 13 12 13 14 13 14 14 14 15 16 16 16 17 16 16 16 16 16 16 17 16 16 16 16 15 15 15 14 14 13 12
13 13 12 12 14 13 13 14 14 15 18 17 17 17 16 16 16 16 16 16 17 16 16 16 16 15 15 14 14 14 13 12
13 12 12 12 12 13 13 13 14 16 17 18 17 17 17 17 16 16 16 17 16 16 16 16 15 15 15 15 14 14 13 13
12 12 12 12 11 11 12 13 14 16 17 17 17 17 17 17 16 16 16 16 15 16 16 15 15 15 15 14 14 14 14 13
12 12 12 12 12 12 13 13 15 16 17 17 17 17 17 16 16 16 16 16 15 15 15 16 15 15 15 14 14 14 14 13
12 12 12 12 12 12 13 13 15 15 16 16 17 17 17 16 16 16 15 15 15 15 15 15 15 15 14 14 14 14 13 13
12 11 11 11 12 13 13 13 15 16 16 17 17 16 16 16 16 16 15 16 15 15 15 15 15 15 14 13 13 13 14 14
11 11 11 11 12 12 13 14 15 15 15 15 16 16 16 16 16 15 16 15 15 15 15 14 14 14 14 12 10 12 13 13
11 11 11 12 12 13 13 14 14 14 14 16 15 15 16 16 15 16 16 16 15 15 15 15 15 14 14 14 8 9 10 12
11 11 11 12 13 13 13 14 14 14 14 15 14 15 15 16 16 16 16 15 16 16 16 15 15 14 12 13 13 12 10 10
11 11 11 12 13 12 13 14 15 15 15 15 15 15 16 16 16 16 16 16 15 15 15 15 15 14 14 12 11 10 11 9
11 11 11 11 11 12 13 14 14 15 15 15 16 16 16 17 17 16 15 16 15 15 15 15 14 14 14 13 13 11 9 9
10 10 10 11 11 12 13 13 14 15 15 15 15 16 16 16 16 16 15 16 16 15 15 14 14 14 13 13 13 13 13 11
10 10 10 11 11 11 12 12 13 13 13 14 14 15 16 16 16 16 16 16 16 15 14 14 14 13 12 12 12 12 12 11

GFSFLT2_925_temp_087.txt.gz
Temp
15 17 16 16 16 18 20 18 18 18 17 16 16 17 17 17 16 16 16 15 16 16 16 16 15 15 15 14 14 13 14 14
17 16 16 16 16 16 17 18 17 17 17 16 16 17 17 17 16 16 17 16 16 16 16 16 16 15 14 14 14 13 13 13
14 15 16 16 16 16 16 16 17 16 16 16 16 15 15 16 16 17 17 16 16 16 16 15 15 15 14 14 13 13 13 14
14 14 15 15 16 15 16 16 16 16 15 15 15 15 15 16 16 16 17 16 16 16 15 15 14 13 13 13 13 13 13 13
14 14 14 14 14 15 15 15 16 15 15 15 14 14 15 16 16 15 16 16 14 14 15 14 14 13 13 14 13 13 13 13
14 14 14 14 14 14 14 15 15 15 15 14 14 14 15 15 15 15 16 14 14 13 13 15 15 15 15 14 13 13 13 13
14 14 14 14 13 13 14 14 14 15 14 14 14 14 15 16 16 16 16 16 16 15 16 15 15 14 15 14 13 12 12 13
13 13 14 13 13 13 14 14 14 15 15 16 14 14 16 16 16 16 16 16 16 15 16 15 15 15 14 14 13 12 12 12
13 13 13 13 13 13 14 14 14 14 14 15 16 16 17 17 16 16 16 16 16 16 16 15 15 14 14 14 14 14 13 12
12 12 13 12 13 13 13 13 13 13 14 16 17 17 17 16 16 16 16 16 15 16 16 14 14 14 14 14 14 14 13 12
12 12 12 12 12 12 12 13 12 13 15 16 17 17 16 17 16 16 16 15 15 16 15 15 14 14 14 14 14 14 13 13
12 12 12 12 12 12 12 12 13 13 14 15 17 17 16 17 16 16 16 15 15 15 15 15 15 15 13 14 14 14 13 13
12 12 12 12 12 12 12 13 13 13 13 15 15 16 16 16 16 15 15 15 16 16 14 14 14 14 12 12 12 13 13 13
11 12 12 12 12 12 12 13 13 14 15 15 15 16 16 16 16 16 15 15 15 15 15 13 13 14 14 13 15 14 13 13
11 11 11 12 12 12 12 13 14 14 14 14 15 16 17 17 16 16 16 16 15 15 15 14 14 13 14 15 14 15 14 12
11 11 11 11 12 13 12 13 13 14 15 15 15 16 16 16 16 16 16 16 14 15 16 15 14 13 12 14 14 13 16 16
11 11 11 11 12 12 12 13 14 13 13 15 14 14 15 15 16 16 16 15 15 15 15 14 15 13 13 12 11 11 11 14
11 11 11 11 12 12 13 14 14 14 13 14 14 15 16 15 14 15 15 15 15 15 15 15 15 14 12 12 13 13 12 11
11 11 12 11 11 12 12 13 14 14 14 14 14 16 15 14 15 14 15 15 15 16 15 15 14 13 13 13 12 12 13 11
11 11 11 11 11 12 12 13 13 13 13 14 13 14 14 15 15 15 15 16 16 15 15 14 13 13 12 13 11 11 10 11

GFSFLT2_925_temp_093.txt.gz
Temp
18 17 18 19 19 19 18 16 15 16 18 17 17 17 17 17 16 16 16 17 17 17 16 15 15 15 16 17 18 19 20 19
18 17 18 17 17 16 16 15 15 16 18 17 17 17 17 17 16 16 17 17 18 17 16 15 15 15 16 17 18 19 19 19
17 17 17 16 16 16 15 15 13 14 18 17 17 17 17 16 16 16 17 17 17 17 16 16 15 15 16 17 18 20 19 18
17 17 17 16 15 15 15 16 14 13 17 17 18 17 17 17 16 16 17 16 17 17 16 16 15 15 16 16 17 19 19 17
17 17 17 16 15 15 15 15 15 15 17 17 18 17 17 16 15 15 14 16 15 15 15 16 17 17 16 18 18 19 19 17
17 15 16 16 15 15 16 16 15 16 16 18 17 17 16 17 16 16 15 16 15 15 16 18 17 17 17 17 18 19 18 16
16 15 15 15 15 14 15 15 15 15 16 16 16 17 17 17 17 17 17 18 17 17 18 17 17 17 17 17 18 18 18 16
15 14 14 14 15 14 14 15 15 15 15 16 16 17 17 18 18 18 18 18 18 18 18 17 18 17 17 17 17 17 18 17
14 14 13 14 14 14 14 14 14 14 14 15 15 16 17 18 19 19 19 19 18 19 18 18 18 18 17 17 17 17 17 17
13 13 13 13 13 13 13 14 14 14 14 15 14 15 17 18 19 19 19 19 18 18 18 18 18 18 18 17 18 17 17 16
13 13 13 13 13 14 13 13 14 14 13 13 14 15 16 17 18 18 18 18 18 18 18 18 18 19 18 18 18 17 17 16
13 13 13 13 13 13 13 14 13 13 13 13 15 15 15 17 16 15 16 16 16 16 17 17 18 18 19 18 17 17 17 17
13 12 13 13 13 12 12 13 13 12 12 14 14 14 14 15 14 15 14 15 15 16 16 16 17 17 17 16 16 16 16 16
14 14 13 13 13 13 12 12 12 12 12 12 12 13 14 14 14 14 14 15 15 15 15 15 16 15 16 18 18 17 16 15
14 14 14 14 12 12 12 12 12 12 12 12 13 13 14 15 15 15 15 15 14 15 15 15 16 15 16 18 18 18 18 17
13 14 14 14 14 13 12 13 13 12 12 12 13 14 14 14 14 15 15 15 15 15 15 15 17 18 16 16 17 17 18 18
15 13 13 13 14 14 14 14 13 12 12 12 13 14 15 14 16 16 15 15 15 16 15 15 16 16 18 17 16 16 16 17
16 14 13 13 14 14 14 13 13 13 12 12 13 13 14 15 16 16 16 15 15 16 16 15 15 16 16 17 17 17 18 17
16 15 14 13 13 14 14 14 14 14 14 13 13 13 13 13 14 15 15 15 16 16 15 15 15 15 16 16 16 16 16 17
16 16 15 13 13 13 14 13 14 14 14 14 14 13 13 14 15 15 16 16 15 15 15 15 15 15 15 15 16 16 16 16

GFSFLT2_925_temp_096.txt.gz
Temp
19 18 18 18 18 19 19 18 18 17 18 15 18 18 18 18 17 17 16 16 16 16 16 16 17 18 18 19 19 19 18 16
18 18 18 18 17 17 18 19 20 19 17 14 17 17 18 17 17 16 16 15 15 16 16 16 17 17 18 19 19 19 18 16
18 18 18 18 17 17 17 17 17 16 15 13 16 17 17 16 16 16 16 14 16 16 16 16 17 17 18 19 19 19 17 16
18 18 18 17 16 16 16 16 15 14 14 14 16 16 16 16 16 16 15 16 16 16 16 16 17 17 18 18 19 18 17 15
17 18 17 17 16 16 16 15 14 13 13 13 16 16 16 16 15 15 15 16 15 16 15 16 16 17 18 18 19 18 16 14
17 17 17 16 16 15 14 14 14 14 16 14 16 16 16 15 15 15 15 14 15 16 16 16 16 17 17 18 19 17 16 15
17 16 16 16 16 15 15 14 14 15 15 15 16 16 15 15 15 14 15 15 15 17 17 17 17 17 17 18 18 17 16 15
16 15 15 15 15 15 15 15 15 15 15 16 17 16 16 16 15 15 16 16 16 17 17 17 17 17 17 17 18 17 16 15
15 15 14 15 15 15 15 15 15 15 15 15 16 16 16 16 16 17 17 17 17 18 18 18 17 17 17 17 18 18 16 15
14 13 14 14 14 14 15 15 15 15 15 16 17 17 17 17 17 17 18 18 18 18 18 18 17 17 17 17 17 17 17 16
14 13 13 14 14 14 14 14 14 14 14 16 16 17 18 17 18 19 19 18 18 18 18 18 18 18 17 17 17 17 17 17
13 13 14 14 13 13 14 14 14 14 14 14 15 16 18 18 18 19 18 18 18 18 18 18 18 18 18 18 18 17 17 17
13 13 13 13 13 13 13 14 14 14 13 14 14 15 16 17 17 17 17 17 17 17 17 18 18 18 18 17 17 17 17 17
13 13 13 13 13 12 13 13 13 13 13 13 14 14 15 16 17 16 16 16 16 16 17 17 16 17 15 16 14 15 16 16
14 14 14 13 13 12 12 12 12 12 12 12 13 14 15 16 16 15 15 15 16 16 16 16 15 15 17 16 15 15 15 16
15 15 14 13 13 13 13 12 12 12 12 12 13 14 14 14 14 14 15 15 15 16 15 15 15 15 16 16 16 16 14 14
15 15 14 13 14 13 13 13 13 12 11 11 12 12 12 12 14 14 14 15 15 15 15 15 16 16 15 16 16 16 16 15
15 14 14 14 14 13 14 14 13 12 12 12 11 11 12 13 14 14 14 15 14 15 15 15 16 16 16 17 17 16 16 15
14 14 14 13 14 14 14 14 13 12 12 12 12 12 12 13 14 14 14 14 15 15 15 16 16 16 16 16 17 16 16 16
16 15 14 14 14 14 14 13 13 13 13 13 13 13 13 13 14 14 15 15 14 15 16 16 15 15 15 15 16 16 16 16

GFSFLT2_925_temp_102.txt.gz
Temp
20 20 19 19 19 19 19 19 19 18 17 16 18 18 18 16 17 17 17 16 16 16 16 17 17 16 16 16 16 16 15 15
20 19 18 18 18 18 18 19 19 19 17 16 17 19 17 16 16 17 17 16 16 16 17 17 17 17 17 17 16 16 15 14
20 19 18 18 18 17 17 18 18 17 17 17 18 19 17 15 17 16 17 17 16 16 17 17 17 17 17 16 16 15 14 14
19 19 18 18 17 17 16 16 16 17 15 17 17 17 16 16 16 16 16 17 16 16 17 17 17 16 16 16 16 15 14 13
18 18 18 18 17 17 16 16 16 16 15 15 16 16 18 19 16 15 16 16 16 16 16 17 16 16 16 16 16 15 14 13
18 18 17 17 17 16 16 15 16 15 15 16 16 16 16 15 16 15 15 16 16 16 16 17 17 16 16 16 15 15 14 13
17 17 17 16 16 16 15 15 14 15 14 15 15 16 15 15 14 14 15 16 16 16 16 18 17 16 16 16 16 15 14 13
17 16 16 16 16 16 15 15 15 14 14 14 15 15 14 14 14 15 15 16 16 16 17 17 17 16 16 16 16 15 14 14
17 16 16 16 16 15 14 14 15 13 13 13 13 14 14 13 14 15 15 16 16 17 17 17 17 16 16 16 16 15 14 14
16 16 15 16 15 14 15 14 14 14 13 13 13 14 14 13 14 15 15 16 16 16 16 17 17 16 16 15 16 15 15 14
16 15 15 15 15 14 14 14 14 14 14 14 13 14 14 14 15 15 16 16 16 16 16 17 17 16 16 16 16 15 15 14
16 15 15 14 14 14 14 14 14 14 15 14 15 14 14 15 15 16 15 15 15 15 17 16 17 16 16 15 15 15 15 15
15 14 14 14 13 13 13 14 14 14 14 14 14 14 14 15 15 16 15 16 16 16 16 17 16 17 17 14 14 15 16 15
14 14 14 14 14 13 13 13 14 14 14 14 14 15 14 15 15 15 15 15 16 16 17 16 16 16 15 15 13 14 14 14
14 13 14 14 13 13 13 13 14 14 14 13 14 14 14 15 15 15 16 16 16 16 17 16 15 16 17 15 11 12 14 15
14 13 13 13 14 13 13 13 14 13 14 13 13 14 14 15 16 16 16 16 16 17 17 17 16 15 15 17 16 15 12 12
14 13 13 13 13 13 13 13 13 13 13 13 13 14 15 15 16 16 16 16 17 17 17 17 17 16 16 16 15 14 14 13
14 14 13 13 12 12 13 12 12 13 13 12 12 12 13 14 14 14 15 14 15 16 17 17 17 17 16 17 16 15 14 14
13 13 13 13 12 12 13 12 12 12 12 12 12 11 11 12 13 13 14 14 14 15 15 15 16 17 17 16 16 16 16 16
14 13 13 13 13 13 13 13 12 12 12 12 11 11 11 12 11 12 12 13 13 12 13 13 15 16 15 15 16 16 16 16

GFSFLT2_925_temp_105.txt.gz
Temp
21 20 19 19 19 19 19 18 19 18 17 17 18 18 17 18 17 17 17 17 17 16 16 16 16 16 16 16 16 16 16 15
20 19 19 19 18 18 18 19 19 17 17 16 17 17 18 17 18 17 17 17 16 16 16 16 16 16 16 16 16 16 15 15
20 19 19 18 18 18 18 18 19 18 17 16 16 17 16 18 18 18 16 17 16 16 16 16 16 16 16 16 16 15 15 14
20 19 19 18 18 18 18 17 17 18 16 15 15 16 17 17 17 18 15 16 16 16 16 16 16 16 15 16 16 15 14 14
19 18 18 18 18 17 16 17 17 16 15 15 15 16 16 17 16 17 16 16 15 16 15 16 17 15 15 15 16 15 14 13
19 18 18 18 17 17 16 16 16 16 15 14 14 16 15 16 16 15 16 16 16 16 15 16 16 16 15 15 16 15 14 13
18 17 17 17 17 16 16 16 15 15 15 15 15 15 17 15 15 15 15 16 16 16 16 16 15 15 15 16 15 14 14 13
17 17 17 17 16 16 15 15 15 15 14 15 15 15 14 15 14 14 16 16 16 16 15 16 15 15 15 15 15 15 14 13
17 17 17 16 16 15 15 14 14 14 15 14 14 14 15 14 14 14 14 17 16 16 15 15 15 15 15 15 15 14 13 13
17 16 16 16 15 15 14 14 14 14 14 14 13 13 14 14 14 13 14 16 16 16 15 15 15 15 15 14 15 14 13 13
16 16 16 15 15 14 14 15 14 14 14 13 13 13 14 14 13 13 14 16 15 15 15 15 15 15 15 14 14 14 14 13
16 16 15 15 14 14 14 14 14 14 14 13 13 13 13 13 13 14 15 15 14 14 15 15 15 15 14 14 14 14 14 14
15 14 14 14 14 13 14 14 14 14 14 14 13 13 13 12 12 14 15 14 14 15 15 15 15 15 14 12 12 13 13 13
14 14 14 14 14 13 13 14 14 14 14 14 14 13 12 13 13 14 14 14 13 15 15 15 14 15 14 13 10 12 12 12
14 14 14 14 15 14 13 13 14 14 14 14 13 12 13 13 14 14 14 14 14 15 16 16 14 15 15 15 11 12 12 13
14 13 14 14 14 14 13 13 14 14 14 14 13 14 13 13 14 14 14 14 14 16 16 16 16 14 15 16 16 15 12 11
13 14 13 14 13 14 13 13 13 13 13 13 13 13 13 14 14 14 14 14 15 15 16 16 16 15 15 14 14 14 14 12
13 13 12 13 13 13 13 13 13 13 13 12 12 13 12 13 12 13 14 15 15 16 16 16 16 16 16 16 16 14 14 13
12 12 12 12 12 13 13 13 13 13 13 12 12 12 12 12 12 13 14 15 15 15 15 15 16 16 16 16 16 16 16 16
12 12 12 12 12 12 13 13 13 13 13 13 12 12 12 12 12 12 13 14 14 14 13 13 14 14 15 16 16 16 16 15